Willmar, MN

2:33 AM CDT on June 28, 2017 (GMT -0500)
Willmar

Weather History for KBDH - April, 2013

Change the Weather History Date:

Tuesday, April 9, 2013

  Actual Average (KBBB) Record (KBBB)
Temperature  
Mean Temperature 36 °F -  
Max Temperature 42 °F 51 °F 88 °F (1977)
Min Temperature 30 °F 30 °F 12 °F (1997)
Degree Days  
Heating Degree Days 29    
Moisture  
Dew Point 21 °F    
Average Humidity 52    
Maximum Humidity 69    
Minimum Humidity 39    
Precipitation  
Precipitation 0.01 in - - ()
Sea Level Pressure  
Sea Level Pressure 30.11 in    
Wind  
Wind Speed 16 mph (NNE)    
Max Wind Speed 28 mph    
Max Gust Speed 33 mph    
Visibility 8 miles    
Events Snow    
Averages and records for this station are not official NWS values.
T = Trace of Precipitation, MM = Missing Value Source: NWS Daily Summary

Daily Weather History Graph

Daily Weather History Graph

Search for Another Location

Airport or City:

Trip Planner

Search our weather history database for the weather conditions in past years. The results will help you decide how hot, cold, wet, or windy it might be!

Date:

Astronomy

Apr. 09, 2013 Rise Set
Actual Time 6:45 AM CDT 7:58 PM CDT
Civil Twilight 6:15 AM CDT 8:29 PM CDT
Nautical Twilight 5:39 AM CDT 9:05 PM CDT
Astronomical Twilight 5:00 AM CDT 9:44 PM CDT
Moon 6:10 AM CDT (4/9) 7:35 PM CDT (4/9)
Length of Visible Light 14h 13m
Length of Day
13h 13m
Waning Crescent, 1% of the Moon is Illuminated
Apr 9
Waning Crescent
Apr 10
New
Apr 18
First Quarter
Apr 25
Full
May 2
Last Quarter

Hourly Weather History & Observations

Time (CDT) Temp. Windchill Dew Point Humidity Pressure Visibility Wind Dir Wind Speed Gust Speed Precip Events Conditions
12:16 AM 42.8 °F 37.0 °F 30.2 °F 61% 30.07 in 10.0 mi North 10.4 mph - N/A   Overcast
12:35 AM 42.8 °F 36.2 °F 30.2 °F 61% 30.07 in 10.0 mi NNE 12.7 mph 17.3 mph N/A   Overcast
12:55 AM 41.0 °F 32.8 °F 30.2 °F 65% 30.05 in 10.0 mi NNE 16.1 mph 23.0 mph N/A   Overcast
1:15 AM 41.0 °F 32.2 °F 30.2 °F 65% 30.04 in 10.0 mi NNE 18.4 mph - N/A   Overcast
1:35 AM 41.0 °F 33.1 °F 28.4 °F 61% 30.07 in 10.0 mi NNE 15.0 mph - N/A   Overcast
1:55 AM 41.0 °F 34.7 °F 28.4 °F 61% 30.09 in 10.0 mi NNE 10.4 mph - N/A   Overcast
2:15 AM 41.0 °F 34.3 °F 28.4 °F 61% 30.08 in 10.0 mi NNE 11.5 mph - N/A   Overcast
2:35 AM 41.0 °F 32.2 °F 28.4 °F 61% 30.06 in 10.0 mi North 18.4 mph - N/A   Overcast
2:55 AM 39.2 °F 30.5 °F 26.6 °F 61% 30.04 in 10.0 mi North 16.1 mph 23.0 mph N/A   Overcast
3:16 AM 37.4 °F 27.5 °F 26.6 °F 65% 30.05 in 10.0 mi North 18.4 mph 26.5 mph N/A   Overcast
3:35 AM 37.4 °F 27.8 °F 24.8 °F 60% 30.03 in 10.0 mi NNE 17.3 mph 24.2 mph N/A   Overcast
3:55 AM 37.4 °F 27.8 °F 24.8 °F 60% 30.06 in 10.0 mi NNE 17.3 mph 20.7 mph N/A   Overcast
4:16 AM 37.4 °F 27.8 °F 23.0 °F 56% 30.07 in 10.0 mi NNE 17.3 mph - N/A   Overcast
4:35 AM 37.4 °F 27.8 °F 23.0 °F 56% 30.06 in 10.0 mi North 17.3 mph 23.0 mph N/A   Overcast
4:55 AM 37.4 °F 27.5 °F 21.2 °F 52% 30.08 in 10.0 mi NNE 18.4 mph 24.2 mph N/A   Overcast
5:15 AM 35.6 °F 25.5 °F 21.2 °F 56% 30.09 in 10.0 mi NNE 17.3 mph - N/A   Overcast
5:35 AM 35.6 °F 24.8 °F 21.2 °F 56% 30.07 in 10.0 mi NNE 19.6 mph 25.3 mph N/A   Overcast
5:55 AM 35.6 °F 25.2 °F 21.2 °F 56% 30.07 in 10.0 mi NNE 18.4 mph 25.3 mph N/A   Overcast
6:15 AM 35.6 °F 24.8 °F 21.2 °F 56% 30.08 in 10.0 mi North 19.6 mph 26.5 mph N/A   Overcast
6:35 AM 35.6 °F 24.5 °F 19.4 °F 52% 30.07 in 10.0 mi NNE 20.7 mph 25.3 mph N/A   Overcast
7:15 AM 33.8 °F 22.5 °F 19.4 °F 56% 30.09 in 10.0 mi North 19.6 mph 25.3 mph N/A   Overcast
7:35 AM 33.8 °F 22.5 °F 19.4 °F 56% 30.11 in 10.0 mi NNE 19.6 mph 25.3 mph N/A   Overcast
7:55 AM 33.8 °F 24.8 °F 19.4 °F 56% 30.11 in 5.0 mi NNE 12.7 mph 18.4 mph N/A Snow Light Snow
8:15 AM 33.8 °F 23.2 °F 19.4 °F 56% 30.11 in 4.0 mi North 17.3 mph 20.7 mph N/A Snow Light Snow
8:35 AM 33.8 °F 23.5 °F 19.4 °F 56% 30.11 in 4.0 mi NNE 16.1 mph 20.7 mph N/A Snow Light Snow
8:55 AM 33.8 °F 22.8 °F 19.4 °F 56% 30.10 in 10.0 mi North 18.4 mph 23.0 mph N/A   Scattered Clouds
9:15 AM 33.8 °F 22.5 °F 19.4 °F 56% 30.10 in 10.0 mi North 19.6 mph 26.5 mph N/A   Clear
9:35 AM 33.8 °F 23.2 °F 19.4 °F 56% 30.10 in 7.0 mi North 17.3 mph 26.5 mph N/A Snow Light Snow
9:55 AM 33.8 °F 22.8 °F 17.6 °F 52% 30.12 in 5.0 mi NNE 18.4 mph 23.0 mph N/A Snow Light Snow
10:15 AM 32.0 °F 22.1 °F 19.4 °F 60% 30.13 in 4.0 mi North 13.8 mph - N/A Snow Light Snow
10:35 AM 32.0 °F 21.6 °F 19.4 °F 60% 30.14 in 1.0 mi North 15.0 mph 19.6 mph N/A Snow Light Snow
10:55 AM 30.2 °F 19.3 °F 21.2 °F 69% 30.15 in 0.8 mi North 15.0 mph 19.6 mph N/A Snow Light Snow
11:15 AM 32.0 °F 21.6 °F 21.2 °F 64% 30.15 in 1.2 mi North 15.0 mph - N/A Snow Light Snow
11:35 AM 32.0 °F 19.8 °F 19.4 °F 60% 30.14 in 1.0 mi North 20.7 mph 24.2 mph N/A Snow Light Snow
11:55 AM 33.8 °F 22.2 °F 19.4 °F 56% 30.12 in 1.2 mi North 20.7 mph 27.6 mph N/A Snow Light Snow
12:15 PM 33.8 °F 22.5 °F 19.4 °F 56% 30.14 in 10.0 mi North 19.6 mph 24.2 mph 0.01 in Snow Light Snow
12:35 PM 33.8 °F 22.5 °F 19.4 °F 56% 30.14 in 10.0 mi North 19.6 mph 23.0 mph 0.01 in   Scattered Clouds
12:55 PM 33.8 °F 22.8 °F 19.4 °F 56% 30.14 in 2.5 mi North 18.4 mph 21.9 mph 0.01 in Snow Light Snow
1:15 PM 33.8 °F 22.8 °F 19.4 °F 56% 30.13 in 4.0 mi North 18.4 mph 23.0 mph N/A Snow Light Snow
1:35 PM 35.6 °F 24.0 °F 17.6 °F 48% 30.13 in 3.0 mi North 23.0 mph 26.5 mph N/A Snow Light Snow
1:55 PM 35.6 °F 24.0 °F 17.6 °F 48% 30.10 in 7.0 mi North 23.0 mph 29.9 mph N/A Snow Light Snow
2:15 PM 37.4 °F 25.4 °F 19.4 °F 48% 30.07 in 10.0 mi NNE 27.6 mph 33.4 mph N/A Snow Light Snow
2:35 PM 37.4 °F 26.9 °F 19.4 °F 48% 30.08 in 10.0 mi NNE 20.7 mph 26.5 mph N/A   Clear
2:55 PM 37.4 °F 26.9 °F 19.4 °F 48% 30.09 in 10.0 mi NNE 20.7 mph 27.6 mph N/A   Scattered Clouds
3:15 PM 39.2 °F 29.3 °F 19.4 °F 45% 30.10 in 10.0 mi NNE 20.7 mph 24.2 mph N/A   Mostly Cloudy
3:35 PM 39.2 °F 29.8 °F 19.4 °F 45% 30.10 in 10.0 mi NNE 18.4 mph - N/A   Mostly Cloudy
3:55 PM 39.2 °F 29.8 °F 19.4 °F 45% 30.12 in 10.0 mi NNE 18.4 mph - N/A   Mostly Cloudy
4:15 PM 39.2 °F 30.8 °F 19.4 °F 45% 30.13 in 10.0 mi North 15.0 mph - N/A   Scattered Clouds
4:35 PM 39.2 °F 30.8 °F 19.4 °F 45% 30.13 in 10.0 mi North 15.0 mph - N/A   Clear
4:55 PM 39.2 °F 31.2 °F 19.4 °F 45% 30.15 in 10.0 mi North 13.8 mph 18.4 mph N/A   Clear
5:15 PM 39.2 °F 30.8 °F 19.4 °F 45% 30.14 in 10.0 mi North 15.0 mph - N/A   Clear
5:35 PM 39.2 °F 29.8 °F 17.6 °F 42% 30.12 in 10.0 mi North 18.4 mph 23.0 mph N/A   Clear
5:55 PM 39.2 °F 29.6 °F 17.6 °F 42% 30.13 in 10.0 mi North 19.6 mph 23.0 mph N/A   Scattered Clouds
6:15 PM 39.2 °F 30.5 °F 15.8 °F 39% 30.12 in 10.0 mi NNE 16.1 mph - N/A   Overcast
6:35 PM 39.2 °F 30.5 °F 15.8 °F 39% 30.11 in 10.0 mi NNE 16.1 mph 24.2 mph N/A   Overcast
6:55 PM 39.2 °F 29.6 °F 15.8 °F 39% 30.10 in 10.0 mi NNE 19.6 mph 24.2 mph N/A   Overcast
7:15 PM 39.2 °F 29.8 °F 15.8 °F 39% 30.10 in 10.0 mi NNE 18.4 mph 26.5 mph N/A   Overcast
7:35 PM 39.2 °F 29.8 °F 15.8 °F 39% 30.11 in 10.0 mi NNE 18.4 mph - N/A   Overcast
7:55 PM 39.2 °F 29.8 °F 15.8 °F 39% 30.10 in 10.0 mi NNE 18.4 mph 24.2 mph N/A   Overcast
8:15 PM 39.2 °F 29.6 °F 15.8 °F 39% 30.09 in 10.0 mi NNE 19.6 mph 23.0 mph N/A   Overcast
8:35 PM 39.2 °F 29.6 °F 15.8 °F 39% 30.11 in 10.0 mi NNE 19.6 mph 26.5 mph N/A   Overcast
8:55 PM 39.2 °F 30.5 °F 17.6 °F 42% 30.09 in 10.0 mi NNE 16.1 mph 24.2 mph N/A   Overcast
9:15 PM 39.2 °F 30.2 °F 19.4 °F 45% 30.09 in 10.0 mi NNE 17.3 mph - N/A   Scattered Clouds
9:55 PM 39.2 °F 31.6 °F 19.4 °F 45% 30.15 in 10.0 mi North 12.7 mph 18.4 mph N/A   Overcast
10:15 PM 39.2 °F 34.2 °F 19.4 °F 45% 30.18 in 10.0 mi NNE 6.9 mph - N/A   Overcast
10:35 PM 39.2 °F 33.6 °F 19.4 °F 45% 30.20 in 7.0 mi NNE 8.1 mph - N/A   Overcast
10:55 PM 37.4 °F 29.3 °F 23.0 °F 56% 30.19 in 5.0 mi NNE 12.7 mph - N/A   Overcast
11:15 PM 37.4 °F 29.3 °F 23.0 °F 56% 30.18 in 10.0 mi NNE 12.7 mph - N/A   Mostly Cloudy
11:35 PM 39.2 °F 32.0 °F 21.2 °F 49% 30.18 in 10.0 mi NNE 11.5 mph - N/A   Overcast
11:55 PM 39.2 °F 33.0 °F 21.2 °F 49% 30.18 in 10.0 mi NNE 9.2 mph - N/A   Scattered Clouds